Regional Weather Roundup
Issued by NWS

Home | Current Version | Previous Version | Graphics & Text | Print | Product List | Glossary On
Versions: 1 2 3 4 5 6 7 8 9 10 11 12 13 14 15 16 17 18 19 20 21 22 23 24 25 26 27 28 29 30 31 32 33 34 35 36 37 38 39 40 41 42 43 44 45 46 47 48 49 50
000
ASUS44 KMEG 291910
RWRTN
TENNESSEE HOURLY STATE WEATHER ROUNDUP
NATIONAL WEATHER SERVICE MEMPHIS TN
200 PM CDT TUE JUL 29 2014

TNZ002-004-019-021-049-052-054-088>092-292000-
WEST TENNESSEE

CITY           SKY/WX    TMP DP  RH WIND       PRES   REMARKS
MEMPHIS INTL   MOSUNNY   80  54  40 VRB7      30.12F
NWS MEMPHIS      N/A     77 N/A N/A MISG        N/A
JACKSON        PTSUNNY   76  50  40 CALM      30.13S
DYERSBURG      MOSUNNY   77  52  41 N8        30.14S
UNION CITY     MOSUNNY   73  54  49 NW6       30.13S
PARIS          MOSUNNY   73  52  47 NW3       30.14S
LEXINGTON      MOSUNNY   75  54  46 VRB5      30.11F
SAVANNAH       PTSUNNY   77  55  47 N12       30.12S
$$

TNZ008-025-027-028-033-062-065-066-292000-
NORTH MIDDLE TENNESSEE

CITY           SKY/WX    TMP DP  RH WIND       PRES   REMARKS
NASHVILLE      MOSUNNY   78  51  38 N12G22    30.10F
DICKSON        MOSUNNY   75  50  41 NE9       30.11F
PORTLAND       MOSUNNY   73  54  49 N6        30.09F
CLARKSVILLE    MOSUNNY   79  48  33 N13       30.10F
LEBANON        MOSUNNY   75  53  46 VRB7      30.09S
SMYRNA         MOSUNNY   79  55  43 NW8       30.10F
MURFREESBORO   PTSUNNY   74  52  46 N6        30.09F
COOKEVILLE     MOSUNNY   73  55  53 N8        30.09S
CROSSVILLE     SUNNY     72  47  40 N8        30.11S
$$

TNZ061-075-076-078-094-096-097-292000-
SOUTH MIDDLE TENNESSEE

CITY           SKY/WX    TMP DP  RH WIND       PRES   REMARKS
LEWISBURG      MOSUNNY   73  52  47 NE13      30.10S
FAYETTEVILLE   SUNNY     73  48  40 NE17G26   30.10S
TULLAHOMA        N/A     73  52  46 N10       30.10F
WINCHESTER     SUNNY     73  50  43 N10       30.09S
MCMINNVILLE    SUNNY     72  55  56 N12       30.10S
COLUMBIA       MOSUNNY   77  54  44 N6        30.10S
SHELBYVILLE    PTSUNNY   73  55  53 N8        30.11S
$$

TNZ017-018-042-046-047-292000-
NORTHEAST TENNESSEE

CITY           SKY/WX    TMP DP  RH WIND       PRES   REMARKS
TRI CITIES     MOSUNNY   74  52  46 NW8       30.02F
ELIZABETHTON   MOCLDY    72  52  49 VRB6        N/A
$$

TNZ012-013-036-069-073-074-292000-
CENTRAL EAST TENNESSEE

CITY           SKY/WX    TMP DP  RH WIND       PRES   REMARKS
KNOXVILLE      MOSUNNY   75  56  51 W9        30.02F
OAK RIDGE      PTSUNNY   76  53  44 NW5       30.05S
GATLINBURG     PTCLDY    77  55  47 W9        30.01F
MORRISTOWN     PTCLDY    73  55  53 NW15      30.04F
$$

TNZ083-085-099-292000-
SOUTHEAST TENNESSEE

CITY           SKY/WX    TMP DP  RH WIND       PRES   REMARKS
CHATTANOOGA    MOSUNNY   79  51  37 VRB3      30.04F
$$

SKY/WX REPORTED AS FAIR MEANS FEW OR NO CLOUDS BELOW
12 THOUSAND FEET.



USA.gov is the U.S. government's official web portal to all federal, state and local government web resources and services.